Edwards AFB North Base, CA

2:36 AM PST on November 17, 2019 (GMT -0800)
Edwards AFB North Base

Weather History for K9L2 - September, 2019

Change the Weather History Date:

Thursday, September 26, 2019

  Actual Average (WUND) Record (WUND)
Temperature  
Mean Temperature 72 °F -  
Max Temperature 84 °F - - (-1)
Min Temperature 61 °F - - (-1)
Cooling Degree Days 8    
Growing Degree Days 22 (Base 50)    
Moisture  
Dew Point 50 °F    
Average Humidity 46    
Maximum Humidity 64    
Minimum Humidity 28    
Precipitation  
Precipitation 0.00 in - - ()
Sea Level Pressure  
Sea Level Pressure 29.87 in    
Wind  
Wind Speed 6 mph ()    
Max Wind Speed 21 mph    
Max Gust Speed 28 mph    
Visibility 9.9 miles    
Events      
Averages and records for this station are not official NWS values.
T = Trace of Precipitation, MM = Missing Value Source: Averaged Metar Reports

Daily Weather History Graph

Daily Weather History Graph

Search for Another Location

Airport or City:

Astronomy

Sep. 26, 2019 Rise Set
Actual Time 6:42 AM PDT 6:42 PM PDT
Civil Twilight 6:17 AM PDT 7:07 PM PDT
Nautical Twilight 5:47 AM PDT 7:37 PM PDT
Astronomical Twilight 5:17 AM PDT 8:06 PM PDT
Moon 4:04 AM PDT (9/26) 5:51 PM PDT (9/26)
Length of Visible Light 12h 50m
Length of Day
12h 00m
Waning Crescent, 6% of the Moon is Illuminated
Sep 26
Waning Crescent
Sep 28
New
Oct 5
First Quarter
Oct 13
Full
Oct 21
Last Quarter

Hourly Weather History & Observations

Time (PDT) Temp. Dew Point Humidity Pressure Visibility Wind Dir Wind Speed Gust Speed Precip Events Conditions
12:58 AM 71.6 °F 46.0 °F 40% 29.81 in 10.0 mi SSE 10.4 mph - N/A   Clear
1:58 AM 72.0 °F 48.9 °F 44% 29.82 in 10.0 mi SSW 9.2 mph - N/A   Clear
2:58 AM 68.9 °F 48.6 °F 48% 29.83 in 10.0 mi East 9.2 mph - N/A   Partly Cloudy
3:28 AM 68.0 °F 48.2 °F 49% 29.83 in 10.0 mi SE 5.8 mph - N/A   Mostly Cloudy
3:58 AM 68.4 °F 50.0 °F 52% 29.84 in 10.0 mi Calm Calm - N/A   Scattered Clouds
4:58 AM 66.2 °F 46.4 °F 49% 29.86 in 10.0 mi ESE 5.8 mph - N/A   Clear
6:43 AM 62.6 °F 48.2 °F 59% 29.91 in 10.0 mi Calm Calm - N/A   Mostly Cloudy
6:58 AM 61.9 °F 46.8 °F 58% 29.92 in 10.0 mi Calm Calm - N/A   Scattered Clouds
7:58 AM 61.5 °F 42.3 °F 49% 29.94 in 10.0 mi Calm Calm - N/A   Clear
8:58 AM 68.9 °F 48.4 °F 48% 29.94 in 10.0 mi Calm Calm - N/A   Clear
9:58 AM 77.0 °F 49.3 °F 38% 30.00 in 10.0 mi SSE 4.6 mph - N/A   Clear
10:58 AM 79.0 °F 49.6 °F 36% 29.92 in 10.0 mi SE 4.6 mph - N/A   Partly Cloudy
12:58 PM 80.2 °F 49.5 °F 34% 29.91 in 10.0 mi Calm Calm - N/A   Scattered Clouds
1:58 PM 81.7 °F 48.9 °F 32% 29.87 in 10.0 mi SSW 5.8 mph - N/A   Scattered Clouds
2:58 PM 82.2 °F 48.9 °F 31% 29.86 in 10.0 mi South 6.9 mph - N/A   Partly Cloudy
3:58 PM 84.0 °F 48.2 °F 29% 29.83 in 9.0 mi South 8.1 mph - N/A   Mostly Cloudy
4:13 PM 84.2 °F 48.2 °F 29% 29.83 in 10.0 mi SSW 10.4 mph - N/A   Partly Cloudy
4:58 PM 84.0 °F 48.0 °F 28% 29.83 in 9.0 mi South 10.4 mph - N/A   Clear
5:58 PM 80.4 °F 52.7 °F 38% 29.83 in 9.0 mi SSW 15.0 mph - N/A   Clear
7:58 PM 72.5 °F 54.7 °F 53% 29.86 in 10.0 mi SSW 20.7 mph 27.6 mph N/A   Clear
8:58 PM 69.4 °F 55.9 °F 62% 29.87 in 10.0 mi South 18.4 mph 25.3 mph N/A   Clear
9:58 PM 68.2 °F 55.6 °F 64% 29.86 in 10.0 mi South 15.0 mph 21.9 mph N/A   Clear
10:58 PM 67.5 °F 54.9 °F 64% 29.85 in 10.0 mi South 13.8 mph - N/A   Clear
11:58 PM 67.6 °F 55.0 °F 64% 29.83 in 10.0 mi SSW 13.8 mph - N/A   Clear